CAPE
9 0 0 0 0 0 0 0 0 0 0 0 0 0 0 0 0 0 0 0 0 0 0 0 0 0 0 0 0 0 0 0 0 0 0 0 0 0 0 0 0 0 0 0
2 0 0 0 0 0 0 0 0 0 0 0 0 0 0 0 0 0 0 0 0 0 0 0 0 0 0 0 0 0 0 0 0 0 0 0 0 0 0 0 0 0 0 0
0 0 0 0 0 0 0 0 0 0 0 0 0 0 0 0 0 0 0 0 0 0 0 0 0 0 0 0 0 0 0 0 0 0 0 0 0 0 0 0 0 0 0 0
0 0 0 0 0 0 0 0 0 0 0 0 0 0 0 0 0 0 0 0 0 0 0 0 0 0 0 0 0 0 0 0 0 0 0 0 0 0 0 0 0 0 0 0
0 0 0 0 0 0 0 0 0 0 0 0 0 0 0 0 0 0 0 0 0 0 0 0 0 0 0 0 0 0 0 0 0 0 0 0 0 0 0 0 0 0 0 0
0 0 0 0 0 0 0 0 0 0 5 1 0 0 0 0 0 0 0 0 0 0 0 0 0 0 0 0 0 0 0 0 0 0 0 0 0 0 0 0 0 0 0 0
7 5 4 1 0 0 1 1 0 0 7 0 0 0 0 0 0 0 0 0 0 0 0 0 0 0 0 0 0 0 0 0 0 0 0 0 0 0 0 0 0 0 0 0
0 2 5 0 15 1 7 4 0 0 0 0 0 1 0 0 0 0 0 0 0 0 0 0 0 0 0 0 0 0 0 0 0 0 0 0 1 1 1 1 0 0 0 0
0 0 0 0 10 7 2 9 0 0 0 0 0 0 0 0 0 0 0 0 0 0 0 0 0 0 0 0 0 0 0 0 0 0 0 0 0 0 0 1 6 10 8 6
0 0 0 0 22 34 18 12 16 28 5 2 0 0 0 0 0 0 0 0 0 0 0 0 0 0 0 0 0 0 0 0 0 0 0 0 0 0 0 0 0 0 0 0
0 0 0 0 0 0 13 13 9 9 15 3 0 0 0 0 0 0 0 0 0 0 0 0 0 0 0 0 0 0 0 0 0 0 0 0 0 0 0 0 0 0 0 0
0 0 0 0 0 0 0 0 0 0 0 0 0 0 0 0 0 0 0 0 0 0 0 0 0 0 0 0 0 0 0 0 0 0 0 0 0 0 0 0 0 0 0 0
0 0 0 0 0 0 7 0 7 10 0 0 0 0 0 0 0 0 0 0 0 0 0 0 0 0 0 0 0 0 0 0 0 0 0 0 0 0 0 0 0 0 0 0
0 0 0 0 0 0 0 0 0 0 2 0 0 0 0 0 0 0 0 0 0 0 0 0 0 0 0 0 0 0 0 0 0 0 0 0 0 0 0 0 0 0 0 0
0 0 0 0 0 0 0 0 0 6 0 0 0 0 0 0 0 0 0 0 0 0 0 0 0 0 0 0 0 0 0 0 0 0 0 0 0 0 0 0 0 0 0 0
0 0 0 0 0 0 0 0 0 0 0 20 0 0 0 0 0 0 0 0 0 0 0 0 0 0 0 0 0 0 0 0 0 0 0 0 0 0 0 0 0 0 0 0
0 0 0 0 0 0 0 0 0 0 0 0 0 0 0 0 0 0 0 0 0 0 0 0 0 0 0 0 0 0 0 0 0 0 0 0 0 0 0 0 0 0 0 0
1 0 0 0 0 0 0 0 0 0 0 0 0 0 0 0 0 0 0 0 0 0 0 0 0 0 0 0 0 0 0 0 0 0 0 0 0 0 0 0 0 0 0 0
0 0 0 0 0 0 0 0 0 0 0 0 0 0 0 0 0 0 0 0 0 0 0 0 0 0 0 0 0 0 0 0 0 0 0 0 0 0 0 0 0 0 0 0
0 0 0 0 0 0 0 0 0 0 0 0 0 0 0 0 0 0 0 0 0 0 0 0 0 0 0 0 0 0 0 0 0 0 0 0 0 0 0 0 0 0 0 0
0 0 0 0 0 0 0 0 0 0 0 0 0 0 0 0 0 0 0 0 0 0 0 0 0 0 0 0 0 0 0 0 0 0 0 0 0 0 0 0 0 0 0 0
0 0 0 0 0 0 0 0 0 0 0 0 0 0 0 0 0 0 0 0 0 0 0 0 0 0 0 0 0 0 0 0 0 0 0 0 0 0 0 0 0 0 0 0
0 0 0 0 0 0 0 0 0 0 0 0 0 0 0 0 0 0 0 0 0 0 0 0 0 0 0 0 0 0 0 0 0 0 0 0 0 0 0 0 0 0 0 0
0 0 0 0 0 0 0 0 0 0 0 0 0 0 0 0 0 0 0 0 0 0 0 0 0 0 0 0 0 0 0 0 0 0 0 0 0 0 0 0 0 0 0 0
0 0 0 0 0 0 0 0 0 0 0 0 0 0 0 0 0 0 0 0 0 0 0 0 0 0 0 0 0 0 0 0 0 0 0 0 0 0 0 0 0 0 0 0
0 0 0 0 0 0 0 0 0 0 0 0 0 0 0 0 0 0 0 0 0 0 0 0 0 0 0 0 0 0 0 0 0 0 0 0 0 0 0 0 0 0 0 0
CIN
-1 0 0 0 0 0 0 0 0 0 0 0 0 0 0 0 0 0 0 0 0 0 0 0 0 0 0 0 0 0 0 0 0 0 0 0 0 0 0 0 0 0 0 0
0 0 0 0 0 0 0 0 0 0 0 0 0 0 0 0 0 0 0 0 0 0 0 0 0 0 0 0 0 0 0 0 0 0 0 0 0 0 0 0 0 0 0 0
0 0 0 0 0 0 0 0 0 0 0 0 0 0 0 0 0 0 0 0 0 0 0 0 0 0 0 0 0 0 0 0 0 0 0 0 0 0 0 0 0 0 0 0
0 0 0 0 0 0 0 0 0 0 0 0 0 0 0 0 0 0 0 0 0 0 0 0 0 0 0 0 0 0 0 0 0 0 0 0 0 0 0 0 0 0 0 0
0 0 0 0 0 0 0 0 0 0 0 0 0 0 0 0 0 0 0 0 0 0 0 0 0 0 0 0 0 0 0 0 0 0 0 0 0 0 0 0 0 0 0 0
0 0 0 0 0 0 0 0 0 0 -1 -3 0 0 0 0 0 0 0 0 0 0 0 0 0 0 0 0 0 0 0 0 0 0 0 0 0 0 0 0 0 0 0 0
-1 -4 -8 -5 -1 -3 -1 -1 0 -1 -1 0 0 0 0 0 0 0 0 0 0 0 0 0 0 0 0 0 0 0 0 0 0 0 0 0 0 0 0 0 0 0 0 0
0 0 -5 -1 -1 -1 0 0 0 0 0 0 0 -1 0 0 0 0 0 0 0 0 0 0 0 0 0 0 0 0 0 0 0 0 0 -6 -8 -9 -11 -11 0 -16 -10 0
0 0 0 0 -3 -3 -2 -2 -1 0 0 0 0 0 0 0 0 0 0 0 0 0 0 0 0 0 0 0 0 0 0 0 0 0 0 0 0 0 0 -5 -2 -6 -62 -19
0 0 0 0 -4 -3 -2 -5 -2 -2 -2 -3 0 0 0 0 0 0 0 0 0 0 0 0 0 0 0 0 0 0 0 0 0 0 0 0 0 0 0 0 0 0 0 0
0 0 0 0 -1 0 -1 -2 -7 -12 -7 -11 0 0 0 0 0 0 0 0 0 0 0 0 0 0 0 0 0 0 0 0 0 0 0 0 0 0 0 0 0 0 0 0
0 0 0 0 0 0 0 0 0 -2 0 -4 -1 -4 0 0 0 0 0 0 0 0 0 0 0 0 0 0 0 0 0 0 0 0 0 0 0 0 0 0 0 0 0 0
0 0 0 0 0 0 -4 -1 -8 -15 -1 0 0 0 0 0 0 0 0 0 0 0 0 0 0 0 0 0 0 0 0 0 0 0 0 0 0 0 0 0 0 0 0 0
0 0 0 0 0 0 0 0 0 0 -1 0 0 0 0 0 0 0 0 0 0 0 0 0 0 0 0 0 0 0 0 0 0 0 0 0 0 0 0 0 0 0 0 0
-2 0 0 0 0 0 0 0 0 -6 0 0 0 0 0 0 0 0 0 0 0 0 0 0 0 0 0 0 0 0 0 0 0 0 0 0 0 0 0 0 0 0 0 0
0 0 0 0 0 0 0 0 0 0 0 -16 0 0 0 0 0 0 0 0 0 0 0 0 0 0 0 0 0 0 0 0 0 0 0 0 0 0 0 0 0 0 0 0
0 0 0 0 0 0 0 0 0 0 0 0 0 0 0 0 0 0 0 0 0 0 0 0 0 0 0 0 0 0 0 0 0 0 0 0 0 0 0 0 0 0 0 0
0 0 0 0 0 0 0 0 0 0 0 0 0 0 0 0 0 0 0 0 0 0 0 0 0 0 0 0 0 0 0 0 0 0 0 0 0 0 0 0 0 0 0 0
0 0 0 0 0 0 0 0 0 0 0 0 0 0 0 0 0 0 0 0 0 0 0 0 0 0 0 0 0 0 0 0 0 0 0 0 0 0 0 0 0 0 0 0
0 -1 0 0 0 0 0 0 0 0 0 0 0 0 0 0 0 0 0 0 0 0 0 0 0 0 0 0 0 0 0 0 0 0 0 0 0 0 0 0 0 0 0 0
0 0 0 0 0 0 0 0 0 0 0 0 0 0 0 0 0 0 0 0 0 0 0 0 0 0 0 0 0 0 0 0 0 0 0 0 0 0 0 0 0 0 0 0
0 0 0 0 0 0 0 0 0 0 0 0 0 0 0 0 0 0 0 0 0 0 0 0 0 0 0 0 0 0 0 0 0 0 0 0 0 0 0 0 0 0 0 0
-2 0 0 0 0 0 0 0 0 0 0 0 0 0 0 0 0 0 0 0 0 0 0 0 0 0 0 0 0 0 0 0 0 0 0 0 0 0 0 0 0 0 0 0
0 0 0 0 0 0 0 0 0 0 0 0 0 0 0 0 0 0 0 0 0 0 0 0 0 0 0 0 0 0 0 0 0 0 0 0 0 0 0 0 0 0 0 0
0 0 0 0 0 0 0 0 0 0 0 0 0 0 0 0 0 0 0 0 0 0 0 0 0 0 0 0 0 0 0 0 0 0 0 0 0 0 0 0 0 0 0 0
0 0 0 0 0 0 0 0 0 0 0 0 0 0 0 0 0 0 0 0 0 0 0 0 0 0 0 0 0 0 0 0 0 0 0 0 0 0 0 0 0 0 0 0
Wind_Speed
31 39 48 41 37 36 35 40 43 37 32 33 39 45 46 38 36 36 36 36 35 38 39 35 32 31 25 20 17 13 14 16 15 15 15 14 13 14 14 16 16 16 16 17
36 54 41 36 37 39 41 41 43 38 34 35 42 50 46 42 40 37 38 39 37 35 34 34 33 29 26 26 22 17 14 14 15 17 18 19 18 16 15 16 17 17 19 20
47 42 37 37 38 43 45 47 42 40 34 35 43 59 49 44 39 36 34 33 33 32 31 31 32 32 34 36 30 23 17 15 15 16 18 19 21 21 18 17 17 18 18 19
46 46 37 40 47 40 51 40 39 41 41 49 33 64 49 41 39 32 30 29 29 30 32 33 36 37 36 36 31 25 22 19 17 16 17 18 19 20 21 21 19 18 18 20
47 40 45 44 43 35 45 33 37 39 42 44 46 47 50 37 41 39 33 31 29 29 30 31 30 31 32 31 28 24 22 21 19 17 17 19 20 23 26 25 25 22 21 20
40 31 35 46 37 34 31 32 34 36 40 55 53 46 67 51 45 39 34 32 32 31 29 26 24 26 27 28 26 23 22 22 21 20 21 22 24 27 28 29 29 28 26 25
43 43 34 32 38 35 34 35 47 49 50 61 41 42 55 33 32 34 33 31 26 24 21 21 23 24 26 26 25 21 21 22 21 21 21 22 25 27 28 30 31 31 30 28
47 53 46 35 39 40 40 39 46 55 57 56 38 50 54 38 38 43 39 34 27 23 21 19 20 21 23 22 21 19 18 19 20 21 23 26 27 28 30 31 31 32 33 33
47 52 34 38 33 33 39 48 39 45 40 47 47 46 50 44 42 35 29 24 21 17 17 16 17 18 18 18 18 18 18 18 18 19 19 21 22 25 29 32 33 34 35 37
36 47 37 32 31 37 36 29 43 45 57 61 50 50 51 40 38 36 32 25 18 15 12 13 13 13 14 15 17 18 19 19 20 21 21 21 22 23 23 25 28 31 33 35
34 38 37 29 41 44 39 43 38 39 44 50 57 55 37 39 32 26 20 12 11 10 11 12 10 12 14 16 18 19 20 21 22 23 23 24 25 26 26 27 29 32 34 36
37 35 44 40 35 35 39 41 41 47 49 46 45 48 29 30 28 22 17 12 11 12 11 10 11 13 16 18 20 21 23 24 25 26 26 27 27 28 30 31 32 34 36 37
37 41 45 42 37 34 41 41 38 38 38 48 50 50 30 27 21 16 13 12 13 12 12 14 15 17 19 21 23 24 25 27 29 30 31 31 32 33 34 35 37 38 39 41
33 44 49 54 45 30 37 39 36 39 48 50 48 46 38 31 24 18 15 14 13 14 16 17 19 22 23 25 27 28 29 31 33 34 35 36 37 37 38 40 41 42 43 44
34 44 42 43 36 30 36 37 37 39 43 46 44 42 39 31 23 18 17 16 17 20 21 22 25 27 28 30 31 32 33 35 36 37 38 39 40 40 42 44 46 47 47 48
33 36 37 40 37 38 37 32 31 35 37 39 38 38 31 26 21 22 22 23 23 23 24 26 28 31 31 33 36 35 37 38 39 40 42 42 42 44 47 48 48 49 49 49
34 34 31 45 36 36 44 41 33 31 31 30 35 29 24 24 26 27 26 25 25 25 27 30 32 33 34 36 36 39 40 40 41 41 41 42 44 47 48 49 50 51 52 52
34 32 30 32 29 44 37 31 29 31 32 30 33 28 27 27 25 24 23 24 26 27 29 30 32 33 35 35 37 38 38 38 39 40 42 44 46 48 49 49 50 51 51 52
32 31 31 30 32 30 32 29 24 26 34 27 27 25 22 18 20 25 23 22 23 25 26 29 31 33 35 36 37 38 37 38 40 43 45 46 47 49 50 51 52 51 53 53
32 34 32 28 35 39 34 23 24 23 45 24 23 20 18 17 26 26 21 22 24 25 27 29 31 32 33 35 36 37 39 40 42 44 45 45 46 48 50 50 51 51 52 54
33 34 37 35 34 35 28 22 20 29 35 17 19 20 20 25 26 17 18 20 22 25 26 27 29 30 32 34 36 37 38 40 42 43 44 45 47 49 50 51 52 54 56 57
34 35 34 33 35 41 23 22 26 21 16 14 14 15 16 16 17 17 18 19 21 23 24 26 28 30 32 34 36 38 39 42 43 45 47 48 49 50 51 54 55 56 57 60
37 31 33 31 33 23 20 19 19 17 14 16 15 15 13 13 15 15 17 17 19 21 24 27 29 30 32 34 36 40 42 44 46 48 49 50 51 51 52 55 57 57 57 59
28 26 31 28 28 25 21 16 17 15 14 14 13 14 14 14 16 17 17 19 21 24 27 29 31 33 36 38 39 41 43 45 47 50 51 52 53 54 54 53 54 56 57 59
24 20 24 29 27 22 22 21 17 15 14 13 12 13 14 15 18 18 20 21 23 26 29 31 34 36 39 41 42 43 45 47 50 51 53 53 53 55 57 55 55 57 56 56
16 22 22 25 19 22 20 16 16 16 16 15 14 15 16 16 18 19 21 23 26 29 31 34 36 39 42 44 45 46 47 49 53 55 55 56 57 58 58 60 62 56 57 58
Wind_Direction
253 254 251 252 257 264 271 269 270 277 279 281 277 277 277 284 284 286 289 290 292 292 290 294 296 297 300 301 299 285 279 275 272 270 271 273 262 273 279 282 281 278 279 280
253 253 260 259 258 261 265 268 270 278 279 279 280 278 280 281 283 284 286 288 291 294 293 293 294 297 297 298 296 286 272 274 265 270 275 279 286 282 278 284 281 279 280 280
251 261 255 256 257 258 261 262 269 273 282 281 282 276 278 280 282 284 285 287 289 292 294 295 295 296 296 295 295 289 272 267 265 263 276 282 289 292 292 287 284 280 279 280
257 256 264 256 254 254 260 264 266 270 275 273 281 274 277 279 280 284 288 291 293 293 292 293 294 295 298 298 296 289 279 274 272 271 270 267 273 280 287 291 291 290 285 285
255 258 250 256 257 254 263 269 266 268 270 275 271 275 277 279 278 281 286 291 293 297 297 298 300 302 302 303 300 294 284 275 275 272 269 271 273 283 290 294 295 295 296 291
254 267 253 253 257 254 263 270 269 269 268 266 266 268 271 274 278 281 287 290 293 296 298 301 307 311 312 312 307 300 294 287 281 279 280 280 280 285 290 292 293 295 296 296
249 255 262 259 254 254 254 258 264 264 262 265 270 266 267 286 285 289 290 292 294 300 302 302 306 312 316 320 319 311 303 297 293 286 284 284 285 287 288 290 292 294 295 296
248 253 251 255 254 255 249 251 259 264 266 268 271 268 267 284 284 286 284 288 288 292 297 302 309 315 320 324 330 333 325 314 308 302 294 290 290 290 291 292 293 294 295 296
250 256 267 253 256 249 253 251 257 267 275 272 269 275 277 278 281 285 293 293 291 289 295 301 310 318 326 333 337 337 338 334 328 322 319 315 310 304 298 296 295 296 296 296
257 258 259 253 255 255 256 259 256 259 263 265 271 271 271 282 284 281 280 281 281 288 295 308 320 330 335 338 338 338 336 333 330 329 328 324 322 321 318 315 309 308 305 304
249 258 263 251 250 249 253 255 260 264 260 268 268 271 279 279 284 288 284 273 274 285 291 305 321 331 333 332 330 330 329 328 327 325 325 324 323 320 319 317 315 314 312 311
243 259 257 256 269 257 252 255 250 259 260 264 270 272 286 285 284 278 270 270 276 290 296 310 317 323 325 325 324 323 322 322 323 321 321 321 321 319 318 317 316 315 313 313
234 250 255 261 265 262 254 255 255 258 268 261 264 267 277 285 289 277 265 270 282 289 295 304 311 314 314 315 316 316 318 318 319 318 316 316 315 314 313 314 314 314 313 311
235 250 250 253 263 260 255 255 253 253 259 262 263 269 271 275 271 258 258 270 279 286 293 299 304 307 307 311 312 312 314 316 315 314 313 312 312 312 311 311 311 310 311 309
241 247 248 254 259 264 265 255 253 254 256 261 265 265 267 266 260 255 263 268 277 283 287 292 296 301 306 308 310 310 312 313 312 311 311 310 310 311 311 311 310 309 308 307
242 254 246 253 257 260 264 260 256 255 256 260 268 267 269 263 258 256 265 271 275 280 286 292 298 303 305 306 303 308 311 311 312 311 309 310 310 310 309 310 310 309 308 308
243 245 248 250 255 262 260 254 256 261 259 255 257 253 265 261 258 262 266 271 274 280 288 294 298 302 304 306 309 307 307 308 308 310 313 313 313 312 312 311 310 309 308 308
232 237 251 255 250 255 265 266 254 256 264 260 266 268 258 259 263 268 274 273 278 285 291 296 300 303 306 309 310 311 311 313 313 314 315 315 314 314 314 313 312 311 310 309
236 234 248 253 248 268 265 265 257 253 266 269 263 266 266 261 267 272 277 282 286 291 295 299 302 305 308 310 313 312 314 316 316 315 316 316 315 314 314 313 312 312 310 310
237 239 244 254 255 257 267 268 269 269 266 274 270 261 255 256 261 269 277 285 289 295 299 302 305 307 309 312 315 316 316 317 317 317 317 317 317 316 314 315 314 313 312 310
239 243 244 251 260 265 269 268 268 262 275 287 278 271 266 266 278 276 284 290 295 299 302 306 308 311 314 317 318 317 318 318 318 319 319 319 318 316 315 313 313 312 310 309
244 246 250 253 258 263 271 266 259 277 289 290 288 287 279 279 284 287 291 295 301 305 309 312 313 315 318 319 319 318 318 318 318 318 317 316 317 316 315 313 312 313 312 311
247 252 252 256 262 275 274 277 279 282 280 284 286 288 290 290 292 296 300 306 310 313 314 316 317 318 320 321 320 318 318 319 318 317 317 316 316 317 317 314 313 314 315 314
253 257 260 263 268 269 271 279 282 283 283 288 294 293 292 290 295 299 307 309 311 313 314 316 317 317 318 320 321 320 319 319 319 317 318 318 317 316 316 316 316 315 315 315
259 260 264 265 267 273 274 271 274 279 287 291 299 299 296 297 301 306 306 309 311 313 315 316 316 316 316 318 318 319 319 319 317 317 316 316 316 315 314 314 315 314 314 314
272 267 263 267 265 273 273 271 276 280 284 288 289 294 300 300 300 305 305 310 311 313 315 316 316 316 316 317 317 318 319 319 317 315 315 315 314 314 314 313 312 314 314 314